STARLINK-2152 (47740 NORAD) Tracking and Keplerian Element Data

This shows tracking and keplerian element data for the satellite.

Feedback or suggestion? Click here.




ElementValue
Catalog47740
NameSTARLINK-2152
Epoch Orbit1787
Epoch Day170.32993412
Epoch Year2021
RAAN32.5656
Inclination53.057
Eccentricity0.0002131
Argument of Perigee105.5524
Mean Anonmoly254.57
Mean Motion15.06399797
Decay Rate8.37E-06
L11 47740U 21017U 21170.32993412 .00000837 00000-0 75089-4 0 9998
L22 47740 53.0570 32.5656 0002131 105.5524 254.5700 15.06399797 17872

Live tracking and technical data element details for STARLINK-2152 (NORAD 47740). STARLINK-2152 can be tracked NOW for your location showing map with azimuth and elevation plus other details from your city location.

Track the satellite on the map from your city or location and see movement details for azimuth, elevation, latitude, longitude, range, height, and movement on the map or in text.







IsCatalogInMostPopularTable: catalog: 47740, numindb: 40
Update: records affected: 1



GetName: 47740 STARLINK-2152

Hit Count: updated at: Mon, 21 Jun 2021 04:59:18 GMT